TimeICT,TemperatureF,Dew PointF,Humidity,Sea Level PressureIn,VisibilityMPH,Wind Direction,Wind SpeedMPH,Gust SpeedMPH,PrecipitationIn,Events,Conditions,WindDirDegrees,DateUTC
12:00 AM,78.8,64.4,61,29.80,5.6,SSW,9.2,-,N/A,,Partly Cloudy,200,2013-02-17 17:00:00
12:30 AM,78.8,64.4,61,29.80,5.6,SSW,8.1,-,N/A,,Partly Cloudy,210,2013-02-17 17:30:00
1:00 AM,78.8,64.4,61,29.77,5.6,SSW,9.2,-,N/A,,Partly Cloudy,210,2013-02-17 18:00:00
6:00 AM,75.2,64.4,69,29.80,5.6,SSW,5.8,-,N/A,,Unknown,210,2013-02-17 23:00:00
6:30 AM,77.0,66.2,69,29.80,5.6,SW,4.6,-,N/A,,Unknown,230,2013-02-17 23:30:00
7:00 AM,-9999,-9999,,29.84,6,South,4.5,,,,Clear,180,2013-02-18 00:00:00
7:00 AM,77.0,64.4,65,29.80,5.6,SSW,5.8,-,N/A,,Unknown,210,2013-02-18 00:00:00
7:30 AM,78.8,66.2,65,29.83,5.6,SW,8.1,-,N/A,,Unknown,230,2013-02-18 00:30:00
8:00 AM,80.6,66.2,61,29.83,-9999.0,SW,8.1,-,N/A,,Clear,220,2013-02-18 01:00:00
8:30 AM,82.4,64.4,54,29.83,-9999.0,SSE,5.8,-,N/A,,Clear,160,2013-02-18 01:30:00
9:00 AM,82.4,62.6,51,29.83,-9999.0,SSE,9.2,-,N/A,,Clear,150,2013-02-18 02:00:00
9:30 AM,84.2,60.8,45,29.83,-9999.0,SE,10.4,-,N/A,,Clear,130,2013-02-18 02:30:00
10:00 AM,87.8,60.8,40,29.83,-9999.0,SSE,10.4,-,N/A,,Clear,150,2013-02-18 03:00:00
10:30 AM,86.0,60.8,43,29.83,-9999.0,South,10.4,-,N/A,,Clear,180,2013-02-18 03:30:00
11:00 AM,86.0,62.6,45,29.83,-9999.0,South,6.9,-,N/A,,Clear,170,2013-02-18 04:00:00
11:30 AM,87.8,62.6,43,29.80,-9999.0,SW,4.6,-,N/A,,Clear,230,2013-02-18 04:30:00
12:00 PM,87.8,62.6,43,29.80,-9999.0,SSE,4.6,-,N/A,,Clear,160,2013-02-18 05:00:00
12:30 PM,89.6,60.8,38,29.77,-9999.0,SSW,4.6,-,N/A,,Clear,210,2013-02-18 05:30:00
1:00 PM,91.4,60.8,36,29.77,-9999.0,SW,5.8,-,N/A,,Clear,220,2013-02-18 06:00:00
1:30 PM,93.2,57.2,30,29.74,-9999.0,WNW,5.8,-,N/A,,Clear,300,2013-02-18 06:30:00
2:00 PM,93.2,59.0,32,29.74,-9999.0,SSE,4.6,-,N/A,,Clear,150,2013-02-18 07:00:00
2:30 PM,93.2,59.0,32,29.71,-9999.0,ESE,5.8,-,N/A,,Clear,110,2013-02-18 07:30:00
3:00 PM,96.8,59.0,28,29.68,-9999.0,NNW,2.3,-,N/A,,Clear,330,2013-02-18 08:00:00
4:00 PM,93.2,59.0,32,29.68,6.2,NW,2.3,-,N/A,,Partly Cloudy,320,2013-02-18 09:00:00
4:30 PM,93.2,60.8,34,29.68,6.2,NNE,5.8,-,N/A,,Partly Cloudy,30,2013-02-18 09:30:00
5:00 PM,93.2,60.8,34,29.68,6.2,NNE,8.1,-,N/A,,Partly Cloudy,30,2013-02-18 10:00:00
5:30 PM,93.2,60.8,34,29.71,-9999.0,NE,6.9,-,N/A,,Clear,40,2013-02-18 10:30:00
6:00 PM,91.4,59.0,34,29.71,5.6,NE,5.8,-,N/A,,Unknown,50,2013-02-18 11:00:00
6:30 PM,89.6,59.0,36,29.71,5.6,NE,3.5,-,N/A,,Unknown,40,2013-02-18 11:30:00
7:00 PM,89.6,59.0,36,29.71,5.6,East,2.3,-,N/A,,Unknown,100,2013-02-18 12:00:00
7:30 PM,87.8,62.6,43,29.74,5.6,South,4.6,-,N/A,,Unknown,170,2013-02-18 12:30:00
8:00 PM,87.8,62.6,43,29.74,5.6,South,8.1,-,N/A,,Unknown,190,2013-02-18 13:00:00
8:30 PM,86.0,64.4,48,29.74,5.6,South,8.1,-,N/A,,Unknown,190,2013-02-18 13:30:00
9:00 PM,87.8,64.4,46,29.74,5.6,South,8.1,-,N/A,,Unknown,180,2013-02-18 14:00:00
9:30 PM,84.2,64.4,51,29.77,5.6,South,9.2,-,N/A,,Unknown,190,2013-02-18 14:30:00
10:00 PM,86.0,66.2,51,29.77,5.6,South,12.7,-,N/A,,Unknown,170,2013-02-18 15:00:00
10:30 PM,84.2,64.4,51,29.77,5.6,South,13.8,-,N/A,,Unknown,170,2013-02-18 15:30:00
11:00 PM,82.4,64.4,54,29.77,5.6,SSW,12.7,-,N/A,,Unknown,200,2013-02-18 16:00:00
11:30 PM,82.4,64.4,54,29.77,5.6,SSW,11.5,-,N/A,,Unknown,200,2013-02-18 16:30:00